[[{"header":{"parameterUnit":"m.s-1","parameterCategory":1,"la1":30.2991,"la2":30.254,"lo1":-89.0895,"lo2":-89.0444,"dy":0.0017,"dx":0.0017,"nx":28,"ny":28,"refTime":"2025-06-04T03:00:00:Z","depth":0,"parameterNumber":2,"parameterNumberName":"U-component_of_WINDS"},"data":[0,0,0,0,0,0,0,0,0,0,0,0,0,0,0,0,0,0,0,0,0,0,0,0,0,0,0,0,0,0,0,0,0,0,0,0,0,0,0,0,0,0,0,0,0,0,0,0,0,0,0,0,0,0,0,0,0,0,-3.747,-3.7472,0,-3.761,-3.7611,-3.7613,-3.7642,-3.7641,-3.764,-3.7639,-3.7778,-3.7783,-3.7787,0,0,0,0,0,0,0,0,0,0,0,0,0,-3.7224,-3.7229,-3.747,-3.7472,-3.7473,-3.7609,-3.7611,-3.7613,-3.7642,-3.7641,-3.764,-3.7639,-3.7777,-3.7782,-3.7788,0,0,0,0,0,0,0,0,0,0,0,0,0,-3.7344,-3.723,-3.747,-3.7505,-3.7509,-3.7609,-3.7611,-3.7614,-3.7643,-3.7641,-3.764,-3.7638,-3.7775,-3.7782,-3.7789,-3.7863,0,0,-3.781,-3.7813,0,0,0,0,0,0,0,0,-3.7337,-3.7353,-3.7498,-3.7502,-3.7508,-3.7607,-3.7576,-3.7697,-3.7643,-3.7592,-3.7639,-3.7637,-3.7722,-3.7734,-3.7763,-3.7869,-3.7875,-3.7811,-3.7815,-3.7818,-3.782,0,0,0,0,0,0,0,-3.7329,-3.7347,-3.7525,-3.75,-3.7506,-3.7512,-3.7527,-3.7599,-3.7664,-3.7596,-3.7599,-3.7615,-3.7725,-3.7756,-3.7766,-3.7877,-3.781,-3.7817,-3.7821,-3.7824,-3.8049,-3.805,0,0,0,0,0,0,-3.7315,-3.734,-3.7521,-3.7529,-3.7417,-3.7517,-3.7535,-3.7577,-3.7663,-3.7675,-3.7616,-3.7616,-3.7745,-3.7758,-3.7771,-3.7862,-3.7818,-3.7824,-3.7828,-3.8047,-3.8049,-3.8051,0,0,0,0,0,0,-3.731,-3.7331,-3.7515,-3.7436,-3.7459,-3.7523,-3.757,-3.758,-3.7612,-3.7678,-3.769,-3.7637,-3.7744,-3.7762,-3.7839,-3.7867,-3.7827,-3.7834,-3.8045,-3.8048,-3.805,-3.8044,0,0,0,0,0,0,-3.7302,-3.7329,-3.7358,-3.7436,-3.7464,-3.7582,-3.7572,-3.7584,-3.7624,-3.7625,-3.7701,-3.7712,-3.7744,-3.7829,-3.7846,-3.7876,-3.7839,-3.8042,-3.8046,-3.8049,-3.8042,-3.8046,-3.805,0,0,0,0,0,-3.7294,-3.7351,-3.736,-3.7381,-3.7502,-3.7583,-3.7599,-3.7637,-3.7626,-3.7656,-3.7698,-3.7709,-3.7862,-3.7837,-3.7857,-3.7889,-3.8041,-3.8045,-3.8049,-3.804,-3.8045,-3.8049,0,0,0,0,0,0,-3.7273,-3.7362,-3.7373,-3.7457,-3.7513,-3.7588,-3.7627,-3.7641,-3.77,-3.7698,-3.7742,-3.7759,-3.7833,-3.7869,-3.784,-3.7964,-3.7951,-3.7959,-3.7937,-3.7943,-3.7946,-3.7935,-3.7845,0,0,0,0,0,-3.7279,-3.7339,-3.7413,-3.748,-3.7507,-3.7562,-3.7599,-3.7623,-3.7682,-3.7706,-3.7754,-3.781,-3.787,-3.7909,-3.7968,-3.8048,-3.8064,-3.808,-3.8084,-3.8087,-3.8092,-3.8135,-3.8142,-3.8064,-3.8064,-3.8064,0,0,-3.7291,-3.7346,-3.7381,-3.7477,-3.7523,-3.7582,-3.7582,-3.7645,-3.7689,-3.7715,-3.7791,-3.7829,-3.7893,-3.7972,-3.8009,-3.8004,-3.8118,-3.8092,-3.8094,-3.8098,-3.814,-3.8147,-3.8154,-3.8067,-3.8066,-3.8066,0,0,-3.7342,-3.7391,-3.7451,-3.7498,-3.7568,-3.7604,-3.7619,-3.7693,-3.7719,-3.7796,-3.7816,-3.7869,-3.7973,-3.8017,-3.8054,-3.8122,-3.8133,-3.814,-3.8159,-3.82,-3.8206,-3.8212,-3.8234,-3.8241,-3.8146,-3.8146,-3.8146,0,-3.7347,-3.7438,-3.748,-3.7542,-3.7583,-3.7611,-3.7671,-3.7714,-3.7799,-3.7825,-3.782,-3.7949,-3.7995,-3.8084,-3.81,-3.813,-3.8146,-3.813,-3.8202,-3.8208,-3.8214,-3.8235,-3.8244,-3.8146,-3.8146,-3.8146,-3.8146,0,-3.744,-3.7503,-3.7543,-3.7625,-3.7671,-3.7732,-3.7781,-3.7822,-3.7843,-3.7879,-3.7956,-3.8013,-3.8083,-3.8107,-3.8127,-3.8198,-3.8192,-3.8194,-3.8181,-3.8221,-3.8242,-3.825,-3.8147,-3.8146,-3.8146,-3.8146,0,0,-3.748,-3.7585,-3.7599,-3.7636,-3.7716,-3.7765,-3.7826,-3.7896,-3.7929,-3.7987,-3.8038,-3.8126,-3.8128,-3.8169,-3.8195,-3.8232,-3.8279,-3.8229,-3.8231,-3.8234,-3.8357,-3.8353,-3.8362,-3.8288,-3.829,-3.8291,-3.8351,0,-3.7538,-3.765,-3.7689,-3.7781,-3.7838,-3.7866,-3.7919,-3.7973,-3.8009,-3.8062,-3.8101,-3.8161,-3.8161,-3.8185,-3.8223,-3.8265,-3.8304,-3.8262,-3.8333,-3.8335,-3.8313,-3.8373,-3.837,-3.8423,-3.8359,-3.8361,-3.8362,0,-3.7621,-3.7681,-3.7778,-3.7849,-3.7875,-3.7922,-3.7989,-3.804,-3.8101,-3.8125,-3.8171,-3.8194,-3.8258,-3.8244,-3.8331,-3.8301,-3.8333,-3.8358,-3.8361,-3.8367,-3.8349,-3.8378,-3.8442,-3.8448,-3.8375,-3.8374,-3.8373,0,-3.7637,-3.7742,-3.7813,-3.7845,-3.7931,-3.7963,-3.8,-3.806,-3.8099,-3.8157,-3.8182,-3.8247,-3.8282,-3.8331,-3.837,-3.8357,-3.8453,-3.8442,-3.8472,-3.8471,-3.8489,-3.8487,-3.8556,-3.8514,-3.8514,-3.8514,-3.8514,0,-3.7696,-3.7754,-3.7821,-3.7865,-3.793,-3.7975,-3.8037,-3.8076,-3.8129,-3.8179,-3.8208,-3.8254,-3.8305,-3.8358,-3.839,-3.8455,-3.8472,-3.8491,-3.8498,-3.8487,-3.8484,-3.8506,-3.8502,-3.8516,-3.8516,-3.8515,-3.8515,0,-3.7723,-3.7772,-3.7851,-3.7926,-3.7946,-3.7991,-3.8054,-3.8097,-3.8134,-3.8198,-3.8215,-3.8273,-3.8337,-3.8382,-3.8464,-3.8485,-3.8555,-3.8563,-3.8534,-3.8537,-3.8564,-3.856,-3.8647,-3.866,-3.8612,-3.8612,-3.8613,0,-3.7757,-3.7802,-3.7882,-3.7918,-3.7956,-3.8014,-3.8054,-3.81,-3.814,-3.8213,-3.8246,-3.8312,-3.8367,-3.8467,-3.8515,-3.8577,-3.8586,-3.8612,-3.8595,-3.8582,-3.8583,-3.8579,-3.8583,-3.8614,-3.8614,-3.8614,-3.8615,0,-3.781,-3.7831,-3.7889,-3.7955,-3.8002,-3.8056,-3.811,-3.8138,-3.8193,-3.8237,-3.8303,-3.8345,-3.8429,-3.8493,-3.856,-3.8597,-3.8614,-3.862,-3.863,-3.8617,-3.8598,-3.8606,-3.8538,-3.8617,-3.8617,-3.8617,-3.8617,-3.8616,-3.7839,-3.788,-3.7943,-3.8006,-3.8051,-3.8101,-3.8145,-3.8188,-3.8244,-3.8316,-3.834,-3.8407,-3.8466,-3.8558,-3.8596,-3.8648,-3.8647,-3.8662,-3.8665,-3.8667,-3.8665,-3.8592,-3.8661,-3.8661,-3.8661,-3.8661,-3.8661,0,-3.7891,-3.7933,-3.7991,-3.8066,-3.8115,-3.813,-3.819,-3.823,-3.8289,-3.8343,-3.8397,-3.8472,-3.8534,-3.8588,-3.8652,-3.8684,-3.8693,-3.8699,-3.8696,-3.8703,-3.8664,-3.8648,-3.869,-3.869,-3.869,-3.869,-3.869,-3.869,-3.7924,-3.7993,-3.8022,-3.8114,-3.8155,-3.8222,-3.8255,-3.8301,-3.8344,-3.8426,-3.8479,-3.8514,-3.8568,-3.8637,-3.8694,-3.8708,-3.8729,-3.8733,-3.8748,-3.871,-3.8706,-3.8703,-3.8688,-3.8738,-3.8738,-3.8783,-3.8783,-3.8784]},{"header":{"parameterUnit":"m.s-1","parameterCategory":1,"la1":30.2991,"la2":30.254,"lo1":-89.0895,"lo2":-89.0444,"dy":0.0017,"dx":0.0017,"nx":28,"ny":28,"refTime":"2025-06-04T03:00:00:Z","depth":0,"parameterNumber":3,"parameterNumberName":"V-component_of_WINDS"},"data":[0,0,0,0,0,0,0,0,0,0,0,0,0,0,0,0,0,0,0,0,0,0,0,0,0,0,0,0,0,0,0,0,0,0,0,0,0,0,0,0,0,0,0,0,0,0,0,0,0,0,0,0,0,0,0,0,0,0,1.527,1.5271,0,1.5339,1.534,1.534,1.534,1.534,1.5339,1.5338,1.5408,1.5411,1.5413,0,0,0,0,0,0,0,0,0,0,0,0,0,1.514,1.5143,1.527,1.5271,1.5272,1.5339,1.534,1.5341,1.5341,1.534,1.5338,1.5337,1.5407,1.541,1.5413,0,0,0,0,0,0,0,0,0,0,0,0,0,1.5202,1.5144,1.527,1.528,1.5282,1.5339,1.534,1.5341,1.5341,1.534,1.5338,1.5337,1.5406,1.541,1.5414,1.5465,0,0,1.5426,1.5428,0,0,0,0,0,0,0,0,1.5198,1.5206,1.5278,1.5279,1.5281,1.533,1.532,1.5383,1.5341,1.5318,1.5338,1.5336,1.5383,1.5389,1.5405,1.5469,1.5472,1.5427,1.5429,1.5431,1.5432,0,0,0,0,0,0,0,1.5194,1.5203,1.5297,1.5279,1.5281,1.5281,1.5289,1.5332,1.5357,1.532,1.532,1.5329,1.5384,1.5401,1.5406,1.5473,1.5426,1.543,1.5433,1.5434,1.5585,1.5586,0,0,0,0,0,0,1.5188,1.52,1.5295,1.5299,1.5236,1.5285,1.5293,1.5315,1.5357,1.5362,1.533,1.5328,1.5394,1.5402,1.5409,1.5473,1.5431,1.5435,1.5437,1.5583,1.5585,1.5587,0,0,0,0,0,0,1.5185,1.5196,1.5292,1.525,1.5262,1.5288,1.5314,1.5318,1.5335,1.5364,1.5369,1.5342,1.5394,1.5403,1.5452,1.5475,1.5436,1.544,1.5581,1.5584,1.5586,1.5601,0,0,0,0,0,0,1.5181,1.5195,1.5214,1.525,1.5264,1.5334,1.5315,1.532,1.5342,1.534,1.5377,1.5382,1.5393,1.5446,1.5456,1.548,1.5443,1.5579,1.5583,1.5585,1.5599,1.5604,1.5608,0,0,0,0,0,1.5176,1.5215,1.5215,1.5227,1.5289,1.5335,1.5343,1.5356,1.5343,1.5364,1.5383,1.538,1.5471,1.5451,1.5462,1.5488,1.5578,1.5582,1.5585,1.5597,1.5603,1.5608,0,0,0,0,0,0,1.5181,1.522,1.5221,1.5272,1.5301,1.5335,1.5361,1.5362,1.5394,1.5392,1.5406,1.5415,1.5464,1.5481,1.5457,1.5541,1.5523,1.5529,1.5528,1.5534,1.5539,1.5534,1.5447,0,0,0,0,0,1.5188,1.5222,1.5255,1.5297,1.5312,1.5334,1.5354,1.5362,1.5392,1.5403,1.5426,1.5455,1.5491,1.5513,1.5547,1.5601,1.561,1.5625,1.563,1.5634,1.5638,1.567,1.5677,1.5599,1.5599,1.5599,0,0,1.5203,1.5229,1.5249,1.5299,1.5322,1.5357,1.5344,1.5381,1.5408,1.5409,1.5457,1.5475,1.5508,1.5561,1.5585,1.5576,1.5662,1.5638,1.5641,1.5644,1.5675,1.5682,1.5689,1.5601,1.5601,1.56,0,0,1.5248,1.5271,1.531,1.5333,1.5368,1.5383,1.5392,1.5427,1.544,1.5488,1.549,1.5522,1.5582,1.5607,1.5627,1.5684,1.5684,1.5695,1.5719,1.575,1.5756,1.5762,1.5783,1.579,1.57,1.57,1.57,0,1.5262,1.5316,1.5329,1.5368,1.539,1.5394,1.5433,1.5456,1.55,1.5515,1.5506,1.5583,1.5605,1.5664,1.5678,1.5694,1.5706,1.569,1.5754,1.576,1.5765,1.5786,1.5794,1.5701,1.5701,1.5701,1.5701,0,1.5332,1.5369,1.5396,1.5439,1.5465,1.5504,1.5524,1.5548,1.5554,1.5571,1.5621,1.5649,1.5689,1.5704,1.5709,1.5764,1.5758,1.5751,1.5733,1.5774,1.5793,1.5801,1.5703,1.5702,1.5702,1.5702,0,0,1.538,1.5432,1.5442,1.5463,1.5503,1.5532,1.5572,1.5612,1.5633,1.5664,1.5698,1.575,1.5745,1.5768,1.5777,1.5803,1.5849,1.5794,1.5795,1.5803,1.5912,1.5917,1.5925,1.5849,1.585,1.5852,1.5909,0,1.5431,1.5501,1.5515,1.5577,1.5612,1.5617,1.5652,1.5681,1.5697,1.573,1.5749,1.5786,1.5775,1.579,1.5817,1.5837,1.587,1.5833,1.5881,1.5883,1.5873,1.5935,1.594,1.5993,1.5917,1.5918,1.5919,0,1.5498,1.5531,1.5596,1.5633,1.5649,1.568,1.5719,1.575,1.5783,1.5793,1.582,1.5827,1.587,1.585,1.591,1.5884,1.5905,1.5918,1.5921,1.5926,1.5903,1.5942,1.601,1.6018,1.5931,1.593,1.5929,0,1.5528,1.5589,1.5637,1.5654,1.5698,1.572,1.5739,1.5771,1.5795,1.5829,1.5845,1.5884,1.5905,1.5935,1.5952,1.5936,1.6011,1.5993,1.6022,1.6021,1.6037,1.6035,1.6109,1.605,1.605,1.605,1.6049,0,1.5582,1.5622,1.5651,1.568,1.5725,1.5742,1.5786,1.5806,1.5835,1.5868,1.5875,1.5906,1.5927,1.5962,1.5976,1.6024,1.6033,1.6043,1.6047,1.6043,1.6042,1.6056,1.6053,1.6052,1.6051,1.6051,1.605,0,1.5623,1.5644,1.5696,1.5734,1.5745,1.5776,1.5809,1.5838,1.5856,1.5898,1.5909,1.5937,1.5978,1.5999,1.605,1.606,1.6114,1.6115,1.6103,1.6104,1.6132,1.6129,1.6218,1.6231,1.6163,1.6163,1.6164,0,1.5656,1.5687,1.5729,1.5752,1.5772,1.5809,1.5834,1.5852,1.5878,1.592,1.5944,1.5986,1.602,1.6086,1.6111,1.6151,1.6153,1.6182,1.6159,1.6155,1.6154,1.6152,1.6156,1.6185,1.6186,1.6187,1.6187,0,1.5714,1.5723,1.5758,1.5798,1.5827,1.5859,1.5891,1.5909,1.5933,1.5962,1.6004,1.6031,1.6084,1.6126,1.6168,1.6189,1.6193,1.6194,1.6203,1.6199,1.6191,1.6197,1.6114,1.6192,1.6191,1.6191,1.6191,1.619,1.5752,1.578,1.5815,1.5854,1.588,1.591,1.594,1.5962,1.5998,1.6042,1.6051,1.6097,1.6132,1.6188,1.6211,1.6247,1.6241,1.6254,1.6257,1.626,1.6262,1.6186,1.6255,1.6255,1.6255,1.6255,1.6254,0,1.581,1.5833,1.5869,1.5914,1.5945,1.5946,1.5982,1.6008,1.6048,1.608,1.6115,1.6165,1.6206,1.6235,1.6277,1.6301,1.6304,1.6312,1.631,1.6315,1.6264,1.6253,1.6309,1.6309,1.6309,1.6309,1.6309,1.6309,1.5844,1.5893,1.5906,1.5968,1.5991,1.6036,1.6056,1.6084,1.611,1.6166,1.62,1.6219,1.625,1.6295,1.6333,1.6341,1.6357,1.6364,1.6372,1.6324,1.6318,1.6313,1.6302,1.6368,1.6368,1.642,1.642,1.6421]}]]